Grosskmehlen, Germany

8:40 AM CEST on May 23, 2017 (GMT +0200)
Grosskmehlen

Weather History for 10488 - November, 2013

Change the Weather History Date:

Saturday, November 9, 2013

  Actual Average Record
Temperature  
Mean Temperature 47 °F -  
Max Temperature 53 °F - - ()
Min Temperature 41 °F - - ()
Degree Days  
Heating Degree Days 18    
Moisture  
Dew Point 41 °F    
Average Humidity 72    
Maximum Humidity 94    
Minimum Humidity 46    
Precipitation  
Precipitation 0.00 in - - ()
Sea Level Pressure  
Sea Level Pressure 29.80 in    
Wind  
Wind Speed 11 mph ()    
Max Wind Speed 18 mph    
Max Gust Speed 23 mph    
Visibility 6.7 miles    
Events Rain    
T = Trace of Precipitation, MM = Missing Value Source: Averaged Metar Reports

Daily Weather History Graph

Daily Weather History Graph

Search for Another Location

Airport or City:

Trip Planner

Search our weather history database for the weather conditions in past years. The results will help you decide how hot, cold, wet, or windy it might be!

Date:

Astronomy

Nov. 09, 2013 Rise Set
Actual Time 7:11 AM CET 4:25 PM CET
Civil Twilight 6:35 AM CET 5:01 PM CET
Nautical Twilight 5:55 AM CET 5:41 PM CET
Astronomical Twilight 5:17 AM CET 6:19 PM CET
Moon 12:32 PM CET (11/9) 10:43 PM CET (11/9)
Length of Visible Light 10h 25m
Length of Day
9h 14m
Waxing Crescent, 41% of the Moon is Illuminated
Nov 9
Waxing Crescent
Nov 10
First Quarter
Nov 17
Full
Nov 25
Last Quarter
Dec 3
New

Hourly Weather History & Observations

Time (CET) Temp. Windchill Dew Point Humidity Pressure Visibility Wind Dir Wind Speed Gust Speed Precip Events Conditions
12:20 AM 51.8 °F - 50.0 °F 94% 29.71 in 6.2 mi South 10.4 mph - N/A Rain Light Rain
12:50 AM 53.6 °F - 50.0 °F 88% 29.71 in - South 10.4 mph - N/A   Clear
1:00 AM 54 °F - 51 °F 85% 29.72 in 12 mi SSE 11.2 mph - - Rain Light Rain
1:20 AM 53.6 °F - 50.0 °F 88% 29.68 in - South 11.5 mph - N/A   Clear
1:50 AM 55.4 °F - 50.0 °F 82% 29.68 in - South 12.7 mph - N/A   Clear
2:00 AM 55 °F - 50 °F 79% 29.71 in 22 mi South 11.2 mph - -   Overcast
2:20 AM 55.4 °F - 50.0 °F 82% 29.71 in 6.2 mi South 13.8 mph - N/A Rain Light Rain
2:50 AM 55.4 °F - 50.0 °F 82% 29.71 in - SW 13.8 mph - N/A   Clear
3:00 AM 55 °F - 49 °F 75% 29.72 in 22 mi SW 11.2 mph - - Rain Light Rain
3:20 AM 55.4 °F - 48.2 °F 77% 29.71 in 6.2 mi SW 12.7 mph - N/A Rain Light Rain
3:50 AM 53.6 °F - 46.4 °F 77% 29.68 in 6.2 mi SW 11.5 mph - N/A Rain Light Rain
4:20 AM 53.6 °F - 46.4 °F 77% 29.71 in - SW 13.8 mph - N/A   Clear
4:50 AM 53.6 °F - 46.4 °F 77% 29.71 in 6.2 mi SW 15.0 mph - N/A   Mostly Cloudy
5:00 AM 54 °F - 47 °F 72% 29.74 in 28 mi SW 11.2 mph - - Rain Light Rain
5:20 AM 53.6 °F - 46.4 °F 77% 29.71 in 6.2 mi SSW 15.0 mph - N/A   Mostly Cloudy
5:50 AM 53.6 °F - 46.4 °F 77% 29.74 in 6.2 mi SW 12.7 mph - N/A   Mostly Cloudy
6:00 AM 54 °F - 47 °F 70% 29.75 in 28 mi SW 11.2 mph - - Rain Light Rain
6:20 AM 53.6 °F - 46.4 °F 77% 29.74 in 6.2 mi SW 12.7 mph - N/A Rain Light Rain
6:50 AM 53.6 °F - 44.6 °F 72% 29.74 in 6.2 mi West 10.4 mph - N/A   Mostly Cloudy
7:00 AM 53 °F - 46 °F 68% 29.76 in 25 mi WSW 11.2 mph - - Rain Light Rain
7:20 AM 53.6 °F - 46.4 °F 77% 29.74 in 6.2 mi SW 9.2 mph - N/A   Mostly Cloudy
7:50 AM 53.6 °F - 44.6 °F 72% 29.77 in 6.2 mi SW 13.8 mph - N/A   Mostly Cloudy
8:00 AM 53 °F - 45 °F 65% 29.81 in 16 mi WSW 15.7 mph - -   Overcast
8:20 AM 53.6 °F - 42.8 °F 67% 29.77 in - WSW 16.1 mph - N/A   Clear
8:50 AM 53.6 °F - 42.8 °F 67% 29.80 in 6.2 mi WSW 12.7 mph - N/A   Mostly Cloudy
9:00 AM 53 °F - 43 °F 60% 29.82 in 25 mi WSW 13.4 mph - -   Mostly Cloudy
9:20 AM 48.2 °F - 44.6 °F 87% 29.80 in 5.0 mi West 11.5 mph - N/A   Mostly Cloudy
9:50 AM 50.0 °F - 42.8 °F 76% 29.83 in 6.2 mi West 11.5 mph - N/A   Mostly Cloudy
10:20 AM 50.0 °F - 42.8 °F 76% 29.83 in 6.2 mi West 9.2 mph - N/A   Mostly Cloudy
10:50 AM 50.0 °F - 41.0 °F 71% 29.86 in 6.2 mi WSW 11.5 mph 23.0 mph N/A   Mostly Cloudy
11:00 AM 50 °F - 42 °F 65% 29.87 in 28 mi WSW 15.7 mph - - Rain Light Rain Showers
11:20 AM 50.0 °F - 37.4 °F 62% 29.86 in 6.2 mi West 15.0 mph - N/A   Mostly Cloudy
11:50 AM 50.0 °F - 35.6 °F 58% 29.86 in 6.2 mi West 13.8 mph - N/A   Mostly Cloudy
12:00 PM 50 °F - 37 °F 50% 29.87 in 28 mi West 17.9 mph - -   Scattered Clouds
12:20 PM 50.0 °F - 37.4 °F 62% 29.86 in 6.2 mi West 12.7 mph - N/A   Mostly Cloudy
12:50 PM 50.0 °F - 37.4 °F 62% 29.86 in 6.2 mi West 13.8 mph - N/A   Partly Cloudy
1:00 PM 51 °F - 37 °F 49% 29.87 in 28 mi West 15.7 mph - -   Partly Cloudy
1:20 PM 51.8 °F - 37.4 °F 58% 29.83 in 6.2 mi West 12.7 mph - N/A   Partly Cloudy
1:50 PM 51.8 °F - 37.4 °F 58% 29.86 in 6.2 mi WSW 12.7 mph - N/A   Partly Cloudy
2:00 PM 52 °F - 37 °F 46% 29.87 in 28 mi West 17.9 mph - -   Scattered Clouds
2:20 PM 51.8 °F - 37.4 °F 58% 29.86 in 6.2 mi WSW 12.7 mph - N/A   Scattered Clouds
2:50 PM 50.0 °F - 37.4 °F 62% 29.86 in 6.2 mi West 10.4 mph - N/A   Partly Cloudy
3:00 PM 51 °F - 37 °F 49% 29.88 in 25 mi WSW 11.2 mph - -   Scattered Clouds
3:20 PM 50.0 °F - 37.4 °F 62% 29.86 in 6.2 mi WSW 8.1 mph - N/A   Scattered Clouds
3:50 PM 50.0 °F - 37.4 °F 62% 29.86 in 6.2 mi WSW 8.1 mph - N/A   Scattered Clouds
4:20 PM 48.2 °F - 39.2 °F 71% 29.86 in 6.2 mi SW 9.2 mph - N/A   Scattered Clouds
4:50 PM 48.2 °F - 39.2 °F 71% 29.86 in - SW 9.2 mph - N/A   Clear
5:20 PM 46.4 °F 42.4 °F 37.4 °F 71% 29.86 in - SW 8.1 mph - N/A   Clear
5:50 PM 46.4 °F 41.5 °F 37.4 °F 71% 29.86 in - SW 10.4 mph - N/A   Clear
6:00 PM 46 °F - 37 °F 62% 29.90 in 25 mi SW 8.9 mph - -   Clear
6:20 PM 44.6 °F 38.8 °F 37.4 °F 76% 29.86 in - SW 11.5 mph - N/A   Clear
6:50 PM 44.6 °F 39.7 °F 35.6 °F 71% 29.86 in - SSW 9.2 mph - N/A   Clear
7:00 PM 44 °F - 36 °F 66% 29.90 in 28 mi South 6.7 mph - -   Clear
7:20 PM 42.8 °F 37.0 °F 35.6 °F 76% 29.86 in - SSW 10.4 mph - N/A   Clear
7:50 PM 44.6 °F 39.7 °F 37.4 °F 76% 29.86 in - SW 9.2 mph - N/A   Clear
8:00 PM 44 °F - 37 °F 68% 29.88 in 28 mi SW 8.9 mph - -   Clear
8:20 PM 42.8 °F 36.6 °F 37.4 °F 81% 29.83 in - SSW 11.5 mph - N/A   Clear
8:50 PM 42.8 °F 37.5 °F 37.4 °F 81% 29.83 in - South 9.2 mph - N/A   Clear
9:00 PM 42 °F - 37 °F 75% 29.88 in 28 mi South 8.9 mph - -   Clear
9:20 PM 42.8 °F 37.0 °F 37.4 °F 81% 29.83 in - South 10.4 mph - N/A   Clear
9:50 PM 41.0 °F 34.7 °F 35.6 °F 81% 29.83 in - South 10.4 mph - N/A   Clear
10:20 PM 41.0 °F 34.3 °F 35.6 °F 81% 29.80 in - South 11.5 mph - N/A   Clear
10:50 PM 41.0 °F 35.8 °F 35.6 °F 81% 29.80 in - South 8.1 mph - N/A   Clear
11:00 PM 41 °F - 35 °F 73% 29.85 in 28 mi SSE 8.9 mph - -   Clear
11:20 PM 41.0 °F 34.7 °F 35.6 °F 81% 29.80 in - South 10.4 mph - N/A   Clear
11:50 PM 41.0 °F 34.7 °F 33.8 °F 76% 29.77 in - South 10.4 mph - N/A   Clear